AirNav   TITAN Aviation Fuels
 
 1006 users online  

W94 Camp Peary Landing Strip Airport
Williamsburg, Virginia, USA

GOING TO WILLIAMSBURG?


FAA INFORMATION EFFECTIVE 04 NOVEMBER 2021

Location

FAA Identifier: W94
Lat/Long: 37-18-46.0594N 076-38-17.5821W
37-18.767657N 076-38.293035W
37.3127943,-76.6382172
(estimated)
Elevation: 40.8 ft. / 12 m (estimated)
Variation: 11W (2010)
From city: 3 miles NE of WILLIAMSBURG, VA
Time zone: UTC -4 (UTC -5 during Standard Time)
Zip code: 23188

Airport Operations

Airport use: Private use, THIS FLD IS DOD RESTRICTED.
Activation date: 07/1958
Control tower: no
ARTCC: WASHINGTON CENTER
FSS: LEESBURG FLIGHT SERVICE STATION
NOTAMs facility: DCA (NOTAM-D service available)
Attendance: MON-FRI 0800-1630
Wind indicator: yes
Segmented circle: no
Lights: SS-SR

Airport Communications

NORFOLK APPROACH: 125.7
NORFOLK DEPARTURE: 125.7
WX AWOS-3 at JGG (6 nm SW): 120.625 (757-220-8810)
WX ASOS at PHF (13 nm SE): PHONE 757-874-3682
WX AWOS-3 at FYJ (14 nm NW): 132.825 (804-785-2307)
WX AWOS-3 at W75 (20 nm NE): 118.45 (804-758-8592)
  • APCH/DEP SVC PRVDD BY ORF APCH ON 125.7/335.625.

Nearby radio navigation aids

VOR radial/distance  VOR name  Freq  Var
HCMr164/8.9HARCUM VORTAC108.8007W
HPWr098/22.8HOPEWELL VORTAC112.0006W
CCVr276/30.6CAPE CHARLES VORTAC112.2010W
ORFr327/32.8NORFOLK VORTAC116.9007W
RICr118/34.4RICHMOND VORTAC114.1009W

 
NDB name  Hdg/Dist  Freq  Var  ID
WAKEFIELD052/26.327411WAKQ .- -.- --.-

Airport Services

Airframe service: NONE
Powerplant service: NONE

Runway Information

Runway 5/23

Dimensions: 5018 x 151 ft. / 1529 x 46 m
FLD CLSD TO ALL CIV & MIL ACFT WO PRIOR APVL OF BASE COMDR.
Surface: asphalt
Runway edge lights: low intensity
RUNWAY 5  RUNWAY 23
Latitude: 37-18.448248N37-19.087063N
Longitude: 076-38.621737W076-37.964333W
Elevation: 40.8 ft.31.3 ft.
Traffic pattern: leftleft
Visual slope indicator: 4-light PAPI on left4-light PAPI on left
Touchdown point: yes, no lightsyes, no lights

Airport Ownership and Management from official FAA records

Ownership: U.S. Army
Owner: US ARMY AERONAUTICAL SVCS AGENCY
FT BELVOIR, VA 22060
Manager: DAVID J CROMLEY
AFETA-CAMP PEARY
WILLIAMSBURG, VA 23185
Phone 804-229-2121
COLONEL INFANTRY.

Additional Remarks

CAUTION: FLD RSTD, PPR BY WRITTEN REQ TO BASE COMDR, ATTN: AIR OPS. EXC WHEN OPR UNDER PRIOR PERMS AUTH, PILOTS SHOULD MAINT AT LEAST 3000 FT ABV THE ARPT ELEV WITHIN 5 NM.
FOR CD CTC NORFOLK APCH AT 757-464-0757.

Instrument Procedures

NOTE: All procedures below are presented as PDF files. If you need a reader for these files, you should download the free Adobe Reader.

NOT FOR NAVIGATION. Please procure official charts for flight.
FAA instrument procedures published for use from 04 November 2021 at 0901Z to 02 December 2021 at 0900z.

 
IAPs - Instrument Approach Procedures
RNAV (GPS) RWY 05   download (187KB)
RNAV (GPS) RWY 23   download (119KB)
VOR-A   download (113KB)
NOTE: Special Take-Off Minimums/Departure Procedures apply   download (140KB)

Other nearby airports with instrument procedures:

KJGG - Williamsburg-Jamestown Airport (6 nm SW)
KFAF - Felker Army Airfield (11 nm S)
KPHF - Newport News/Williamsburg International Airport (13 nm SE)
KFYJ - Middle Peninsula Regional Airport (14 nm NW)
KLFI - Langley Air Force Base (19 nm SE)
W75 - Hummel Field Airport (20 nm NE)
 
Loc | Ops | Rwys | IFR | FBO | Links
Com | Nav | Svcs | Stats | Notes
Area around W94 (Camp Peary Landing Strip Airport)
 
Road maps at: MapQuest Bing Google
 
Aerial photo
WARNING: Photo may not be current or correct
Aerial photo of W94 (Camp Peary Landing Strip Airport)
Photo by Glenn Woodell, of NASA Langley Research Center
Photo taken 10-Apr-2014
looking south.

Do you have a better or more recent aerial photo of Camp Peary Landing Strip Airport that you would like to share? If so, please send us your photo.

 
Sectional chart

 
Airport distance calculator
Flying to Camp Peary Landing Strip Airport? Find the distance to fly.

From to W94

Sunrise and sunset
Times for 01-Dec-2021
 Local
(UTC-5)
 Zulu
(UTC)
Morning civil twilight06:3411:34
Sunrise07:0312:03
Sunset16:4821:48
Evening civil twilight17:1722:17

Current date and time
Zulu (UTC)  02-Dec-2021 02:03:45
Local (UTC-5)  01-Dec-2021 21:03:45
 
METAR
KJGG 
6nm SW 
020155Z AUTO 15005KT 10SM CLR 11/07 A3012 RMK AO1
KFAF 
12nm S 
020156Z AUTO 16003KT 10SM CLR 10/03 A3011 RMK AO2 SLP200 T01000026 $
KPHF 
13nm SE 
020154Z 00000KT 10SM CLR 09/05 A3013 RMK AO2 SLP201 T00940050
KFYJ 
14nm NW 
020155Z AUTO 14005KT 10SM 09/05 A3011 RMK AO1 T00870048
KW75 
20nm NE 
020155Z AUTO 17005KT 10SM CLR 09/06 A3012 RMK AO1 T00910055
KLFI 
20nm SE 
020056Z 16004KT 10SM BKN080 09/07 A3013 RMK AO2A SLP210 T00940065 $
TAF
KFAF 
12nm S 
011900Z 0119/0301 VRB06KT 9999 FEW110 SCT150 BKN210 QNH3005INS BECMG 0205/0206 19006KT 9999 FEW080 BKN110 OVC160 QNH2995INS BECMG 0217/0218 24015G20KT 9999 SKC QNH2980INS BECMG 0221/0222 23009KT 9999 SKC QNH2980INS TX16/0219Z TN07/0212Z
KPHF 
13nm SE 
011737Z 0118/0218 13007KT P6SM SCT200 FM012300 15004KT P6SM BKN200 FM020300 17004KT P6SM OVC150 FM020700 20005KT P6SM BKN120 FM021400 23010KT P6SM SCT250
KLFI 
20nm SE 
011800Z 0118/0224 05009KT 9999 FEW120 QNH3022INS BECMG 0120/0121 15009KT 9999 SCT060 BKN090 QNH3014INS BECMG 0211/0212 20009KT 9999 SCT065 QNH2988INS TX14/0218Z TN07/0209Z
NOTAMs
Click for the latest NOTAMs
NOTAMs are issued by the DoD/FAA and will open in a separate window not controlled by AirNav.

 

 
 

Would you like to see your business listed on this page?

 If your business provides an interesting product or service to pilots, flight crews, aircraft, or users of the Camp Peary Landing Strip Airport, you should consider listing it here.  To start the listing process, click on the button below
 
Add a business
 

Other Pages about Camp Peary Landing Strip Airport

Update a link
 
Copyright © AirNav, LLC. All rights reserved. Privacy Policy  Contact